Year,Month,Day,Hour,Minute,Value (Times are PST for temperature in C)
2014,09,16,00,00,18.90
2014,09,16,00,01,18.90
2014,09,16,00,02,18.80
2014,09,16,00,03,18.80
2014,09,16,00,04,18.70
2014,09,16,00,05,18.60
2014,09,16,00,06,18.60
2014,09,16,00,07,18.50
2014,09,16,00,08,18.50
2014,09,16,00,09,18.40
2014,09,16,00,10,18.40
2014,09,16,00,11,18.40
2014,09,16,00,12,18.30
2014,09,16,00,13,18.30
2014,09,16,00,14,18.30
2014,09,16,00,15,18.30
2014,09,16,00,16,18.30
2014,09,16,00,17,18.30
2014,09,16,00,18,18.30
2014,09,16,00,19,18.30
2014,09,16,00,20,18.30
2014,09,16,00,21,18.20
2014,09,16,00,22,18.20
2014,09,16,00,23,18.20
2014,09,16,00,24,18.20
2014,09,16,00,25,18.10
2014,09,16,00,26,18.10
2014,09,16,00,27,18.00
2014,09,16,00,28,17.90
2014,09,16,00,29,17.90
2014,09,16,00,30,17.80
2014,09,16,00,31,17.80
2014,09,16,00,32,17.70
2014,09,16,00,33,17.70
2014,09,16,00,34,17.60
2014,09,16,00,35,17.60
2014,09,16,00,36,17.60
2014,09,16,00,37,17.60
2014,09,16,00,38,17.60
2014,09,16,00,39,17.60
2014,09,16,00,40,17.60
2014,09,16,00,41,17.60
2014,09,16,00,42,17.60
2014,09,16,00,43,17.60
2014,09,16,00,44,17.60
2014,09,16,00,45,17.60
2014,09,16,00,46,17.60
2014,09,16,00,47,17.60
2014,09,16,00,48,17.60
2014,09,16,00,49,17.50
2014,09,16,00,50,17.50
2014,09,16,00,51,17.40
2014,09,16,00,52,17.30
2014,09,16,00,53,17.30
2014,09,16,00,54,17.20
2014,09,16,00,55,17.10
2014,09,16,00,56,17.00
2014,09,16,00,57,16.90
2014,09,16,00,58,16.90
2014,09,16,00,59,16.80
2014,09,16,01,00,16.70
2014,09,16,01,01,16.60
2014,09,16,01,02,16.60
2014,09,16,01,03,16.50
2014,09,16,01,04,16.40
2014,09,16,01,05,16.30
2014,09,16,01,06,16.30
2014,09,16,01,07,16.20
2014,09,16,01,08,16.20
2014,09,16,01,09,16.10
2014,09,16,01,10,16.10
2014,09,16,01,11,16.00
2014,09,16,01,12,16.00
2014,09,16,01,13,15.90
2014,09,16,01,14,15.90
2014,09,16,01,15,15.90
2014,09,16,01,16,15.80
2014,09,16,01,17,15.80
2014,09,16,01,18,15.80
2014,09,16,01,19,15.80
2014,09,16,01,20,15.70
2014,09,16,01,21,15.60
2014,09,16,01,22,15.50
2014,09,16,01,23,15.50
2014,09,16,01,24,15.50
2014,09,16,01,25,15.40
2014,09,16,01,26,15.40
2014,09,16,01,27,15.40
2014,09,16,01,28,15.30
2014,09,16,01,29,15.30
2014,09,16,01,30,15.30
2014,09,16,01,31,15.30
2014,09,16,01,32,15.30
2014,09,16,01,33,15.30
2014,09,16,01,34,15.30
2014,09,16,01,35,15.30
2014,09,16,01,36,15.20
2014,09,16,01,37,15.20
2014,09,16,01,38,15.20
2014,09,16,01,39,15.10
2014,09,16,01,40,15.10
2014,09,16,01,41,15.10
2014,09,16,01,42,15.10
2014,09,16,01,43,15.10
2014,09,16,01,44,15.10
2014,09,16,01,45,15.10
2014,09,16,01,46,15.10
2014,09,16,01,47,15.10
2014,09,16,01,48,15.10
2014,09,16,01,49,15.10
2014,09,16,01,50,15.10
2014,09,16,01,51,15.00
2014,09,16,01,52,15.00
2014,09,16,01,53,15.00
2014,09,16,01,54,14.90
2014,09,16,01,55,14.90
2014,09,16,01,56,14.90
2014,09,16,01,57,14.90
2014,09,16,01,58,14.90
2014,09,16,01,59,14.90
2014,09,16,02,00,14.90
2014,09,16,02,01,14.80
2014,09,16,02,02,14.80
2014,09,16,02,03,14.80
2014,09,16,02,04,14.80
2014,09,16,02,05,14.80
2014,09,16,02,06,14.80
2014,09,16,02,07,14.80
2014,09,16,02,08,14.80
2014,09,16,02,09,14.80
2014,09,16,02,10,14.80
2014,09,16,02,11,14.80
2014,09,16,02,12,14.80
2014,09,16,02,13,14.70
2014,09,16,02,14,14.70
2014,09,16,02,15,14.70
2014,09,16,02,16,14.70
2014,09,16,02,17,14.70
2014,09,16,02,18,14.70
2014,09,16,02,19,14.70
2014,09,16,02,20,14.70
2014,09,16,02,21,14.70
2014,09,16,02,22,14.60
2014,09,16,02,23,14.60
2014,09,16,02,24,14.60
2014,09,16,02,25,14.60
2014,09,16,02,26,14.60
2014,09,16,02,27,14.60
2014,09,16,02,28,14.60
2014,09,16,02,29,14.60
2014,09,16,02,30,14.60
2014,09,16,02,31,14.60
2014,09,16,02,32,14.60
2014,09,16,02,33,14.60
2014,09,16,02,34,14.60
2014,09,16,02,35,14.60
2014,09,16,02,36,14.60
2014,09,16,02,37,14.60
2014,09,16,02,38,14.60
2014,09,16,02,39,14.60
2014,09,16,02,40,14.60
2014,09,16,02,41,14.60
2014,09,16,02,42,14.60
2014,09,16,02,43,14.60
2014,09,16,02,44,14.50
2014,09,16,02,45,14.50
2014,09,16,02,46,14.50
2014,09,16,02,47,14.50
2014,09,16,02,48,14.50
2014,09,16,02,49,14.50
2014,09,16,02,50,14.50
2014,09,16,02,51,14.50
2014,09,16,02,52,14.50
2014,09,16,02,53,14.50
2014,09,16,02,54,14.50
2014,09,16,02,55,14.40
2014,09,16,02,56,14.40
2014,09,16,02,57,14.40
2014,09,16,02,58,14.40
2014,09,16,02,59,14.40
2014,09,16,03,00,14.40
2014,09,16,03,01,14.50
2014,09,16,03,02,14.50
2014,09,16,03,03,14.50
2014,09,16,03,04,14.50
2014,09,16,03,05,14.60
2014,09,16,03,06,14.60
2014,09,16,03,07,14.60
2014,09,16,03,08,14.60
2014,09,16,03,09,14.60
2014,09,16,03,10,14.60
2014,09,16,03,11,14.60
2014,09,16,03,12,14.60
2014,09,16,03,13,14.60
2014,09,16,03,14,14.70
2014,09,16,03,15,14.70
2014,09,16,03,16,14.70
2014,09,16,03,17,14.70
2014,09,16,03,18,14.70
2014,09,16,03,19,14.70
2014,09,16,03,20,14.70
2014,09,16,03,21,14.70
2014,09,16,03,22,14.70
2014,09,16,03,23,14.60
2014,09,16,03,24,14.70
2014,09,16,03,25,14.70
2014,09,16,03,26,14.70
2014,09,16,03,27,14.70
2014,09,16,03,28,14.70
2014,09,16,03,29,14.70
2014,09,16,03,30,14.70
2014,09,16,03,31,14.70
2014,09,16,03,32,14.70
2014,09,16,03,33,14.70
2014,09,16,03,34,14.70
2014,09,16,03,35,14.70
2014,09,16,03,36,14.60
2014,09,16,03,37,14.60
2014,09,16,03,38,14.60
2014,09,16,03,39,14.60
2014,09,16,03,40,14.60
2014,09,16,03,41,14.60
2014,09,16,03,42,14.60
2014,09,16,03,43,14.60
2014,09,16,03,44,14.60
2014,09,16,03,45,14.60
2014,09,16,03,46,14.60
2014,09,16,03,47,14.60
2014,09,16,03,48,14.60
2014,09,16,03,49,14.60
2014,09,16,03,50,14.60
2014,09,16,03,51,14.70
2014,09,16,03,52,14.70
2014,09,16,03,53,14.70
2014,09,16,03,54,14.70
2014,09,16,03,55,14.70
2014,09,16,03,56,14.70
2014,09,16,03,57,14.70
2014,09,16,03,58,14.70
2014,09,16,03,59,14.70
2014,09,16,04,00,14.70
2014,09,16,04,01,14.70
2014,09,16,04,02,14.70
2014,09,16,04,03,14.70
2014,09,16,04,04,14.70
2014,09,16,04,05,14.70
2014,09,16,04,06,14.70
2014,09,16,04,07,14.60
2014,09,16,04,08,14.60
2014,09,16,04,09,14.50
2014,09,16,04,10,14.50
2014,09,16,04,11,14.40
2014,09,16,04,12,14.30
2014,09,16,04,13,14.30
2014,09,16,04,14,14.20
2014,09,16,04,15,14.20
2014,09,16,04,16,14.10
2014,09,16,04,17,14.10
2014,09,16,04,18,14.00
2014,09,16,04,19,13.90
2014,09,16,04,20,13.90
2014,09,16,04,21,13.90
2014,09,16,04,22,13.80
2014,09,16,04,23,13.80
2014,09,16,04,24,13.80
2014,09,16,04,25,13.70
2014,09,16,04,26,13.70
2014,09,16,04,27,13.70
2014,09,16,04,28,13.70
2014,09,16,04,29,13.60
2014,09,16,04,30,13.60
2014,09,16,04,31,13.60
2014,09,16,04,32,13.60
2014,09,16,04,33,13.60
2014,09,16,04,34,13.50
2014,09,16,04,35,13.50
2014,09,16,04,36,13.50
2014,09,16,04,37,13.50
2014,09,16,04,38,13.50
2014,09,16,04,39,13.50
2014,09,16,04,40,13.40
2014,09,16,04,41,13.40
2014,09,16,04,42,13.40
2014,09,16,04,43,13.40
2014,09,16,04,44,13.40
2014,09,16,04,45,13.50
2014,09,16,04,46,13.50
2014,09,16,04,47,13.50
2014,09,16,04,48,13.50
2014,09,16,04,49,13.50
2014,09,16,04,50,13.60
2014,09,16,04,51,13.60
2014,09,16,04,52,13.60
2014,09,16,04,53,13.60
2014,09,16,04,54,13.60
2014,09,16,04,55,13.60
2014,09,16,04,56,13.50
2014,09,16,04,57,13.50
2014,09,16,04,58,13.50
2014,09,16,04,59,13.40
2014,09,16,05,00,13.40
2014,09,16,05,01,13.40
2014,09,16,05,02,13.40
2014,09,16,05,03,13.40
2014,09,16,05,04,13.30
2014,09,16,05,05,13.30
2014,09,16,05,06,13.30
2014,09,16,05,07,13.30
2014,09,16,05,08,13.30
2014,09,16,05,09,13.30
2014,09,16,05,10,13.20
2014,09,16,05,11,13.20
2014,09,16,05,12,13.20
2014,09,16,05,13,13.20
2014,09,16,05,14,13.20
2014,09,16,05,15,13.10
2014,09,16,05,16,13.10
2014,09,16,05,17,13.10
2014,09,16,05,18,13.10
2014,09,16,05,19,13.10
2014,09,16,05,20,13.10
2014,09,16,05,21,13.10
2014,09,16,05,22,13.10
2014,09,16,05,23,13.10
2014,09,16,05,24,13.10
2014,09,16,05,25,13.10
2014,09,16,05,26,13.10
2014,09,16,05,27,13.10
2014,09,16,05,28,13.10
2014,09,16,05,29,13.20
2014,09,16,05,30,13.20
2014,09,16,05,31,13.20
2014,09,16,05,32,13.30
2014,09,16,05,33,13.30
2014,09,16,05,34,13.40
2014,09,16,05,35,13.40
2014,09,16,05,36,13.40
2014,09,16,05,37,13.50
2014,09,16,05,38,13.50
2014,09,16,05,39,13.50
2014,09,16,05,40,13.50
2014,09,16,05,41,13.50
2014,09,16,05,42,13.60
2014,09,16,05,43,13.60
2014,09,16,05,44,13.60
2014,09,16,05,45,13.60
2014,09,16,05,46,13.60
2014,09,16,05,47,13.60
2014,09,16,05,48,13.50
2014,09,16,05,49,13.50
2014,09,16,05,50,13.50
2014,09,16,05,51,13.50
2014,09,16,05,52,13.50
2014,09,16,05,53,13.50
2014,09,16,05,54,13.50
2014,09,16,05,55,13.50
2014,09,16,05,56,13.40
2014,09,16,05,57,13.40
2014,09,16,05,58,13.40
2014,09,16,05,59,13.40
2014,09,16,06,00,13.40
2014,09,16,06,01,13.40
2014,09,16,06,02,13.40
2014,09,16,06,03,13.40
2014,09,16,06,04,13.40
2014,09,16,06,05,13.40
2014,09,16,06,06,13.40
2014,09,16,06,07,13.40
2014,09,16,06,08,13.30
2014,09,16,06,09,13.30
2014,09,16,06,10,13.30
2014,09,16,06,11,13.30
2014,09,16,06,12,13.30
2014,09,16,06,13,13.30
2014,09,16,06,14,13.30
2014,09,16,06,15,13.30
2014,09,16,06,16,13.30
2014,09,16,06,17,13.30
2014,09,16,06,18,13.30
2014,09,16,06,19,13.30
2014,09,16,06,20,13.30
2014,09,16,06,21,13.30
2014,09,16,06,22,13.30
2014,09,16,06,23,13.30
2014,09,16,06,24,13.30
2014,09,16,06,25,13.30
2014,09,16,06,26,13.30
2014,09,16,06,27,13.30
2014,09,16,06,28,13.30
2014,09,16,06,29,13.30
2014,09,16,06,30,13.30
2014,09,16,06,31,13.30
2014,09,16,06,32,13.30
2014,09,16,06,33,13.20
2014,09,16,06,34,13.20
2014,09,16,06,35,13.20
2014,09,16,06,36,13.20
2014,09,16,06,37,13.20
2014,09,16,06,38,13.20
2014,09,16,06,39,13.10
2014,09,16,06,40,13.00
2014,09,16,06,41,13.00
2014,09,16,06,42,12.90
2014,09,16,06,43,12.90
2014,09,16,06,44,12.80
2014,09,16,06,45,12.80
2014,09,16,06,46,12.80
2014,09,16,06,47,12.70
2014,09,16,06,48,12.70
2014,09,16,06,49,12.70
2014,09,16,06,50,12.70
2014,09,16,06,51,12.60
2014,09,16,06,52,12.50
2014,09,16,06,53,12.50
2014,09,16,06,54,12.40
2014,09,16,06,55,12.40
2014,09,16,06,56,12.30
2014,09,16,06,57,12.30
2014,09,16,06,58,12.30
2014,09,16,06,59,12.30
2014,09,16,07,00,12.30
2014,09,16,07,01,12.30
2014,09,16,07,02,12.20
2014,09,16,07,03,12.20
2014,09,16,07,04,12.20
2014,09,16,07,05,12.20
2014,09,16,07,06,12.20
2014,09,16,07,07,12.20
2014,09,16,07,08,12.20
2014,09,16,07,09,12.20
2014,09,16,07,10,12.20
2014,09,16,07,11,12.10
2014,09,16,07,12,12.10
2014,09,16,07,13,12.10
2014,09,16,07,14,12.10
2014,09,16,07,15,12.10
2014,09,16,07,16,12.10
2014,09,16,07,17,12.10
2014,09,16,07,18,12.10
2014,09,16,07,19,12.10
2014,09,16,07,20,12.10
2014,09,16,07,21,12.10
2014,09,16,07,22,12.10
2014,09,16,07,23,12.10
2014,09,16,07,24,12.10
2014,09,16,07,25,12.10
2014,09,16,07,26,12.10
2014,09,16,07,27,12.20
2014,09,16,07,28,12.20
2014,09,16,07,29,12.30
2014,09,16,07,30,12.40
2014,09,16,07,31,12.40
2014,09,16,07,32,12.50
2014,09,16,07,33,12.60
2014,09,16,07,34,12.70
2014,09,16,07,35,12.70
2014,09,16,07,36,12.80
2014,09,16,07,37,12.80
2014,09,16,07,38,12.80
2014,09,16,07,39,12.90
2014,09,16,07,40,12.90
2014,09,16,07,41,13.00
2014,09,16,07,42,13.00
2014,09,16,07,43,13.10
2014,09,16,07,44,13.10
2014,09,16,07,45,13.10
2014,09,16,07,46,13.10
2014,09,16,07,47,13.20
2014,09,16,07,48,13.20
2014,09,16,07,49,13.20
2014,09,16,07,50,13.20
2014,09,16,07,51,13.20
2014,09,16,07,52,13.20
2014,09,16,07,53,13.20
2014,09,16,07,54,13.20
2014,09,16,07,55,13.20
2014,09,16,07,56,13.10
2014,09,16,07,57,13.10
2014,09,16,07,58,13.10
2014,09,16,07,59,13.10
2014,09,16,08,00,13.00
2014,09,16,08,01,13.00
2014,09,16,08,02,13.00
2014,09,16,08,03,13.00
2014,09,16,08,04,13.00
2014,09,16,08,05,13.00
2014,09,16,08,06,13.00
2014,09,16,08,07,13.00
2014,09,16,08,08,13.00
2014,09,16,08,09,13.00
2014,09,16,08,10,13.00
2014,09,16,08,11,13.00
2014,09,16,08,12,13.10
2014,09,16,08,13,13.10
2014,09,16,08,14,13.10
2014,09,16,08,15,13.20
2014,09,16,08,16,13.20
2014,09,16,08,17,13.20
2014,09,16,08,18,13.30
2014,09,16,08,19,13.30
2014,09,16,08,20,13.30
2014,09,16,08,21,13.30
2014,09,16,08,22,13.40
2014,09,16,08,23,13.40
2014,09,16,08,24,13.40
2014,09,16,08,25,13.40
2014,09,16,08,26,13.40
2014,09,16,08,27,13.40
2014,09,16,08,28,13.40
2014,09,16,08,29,13.40
2014,09,16,08,30,13.40
2014,09,16,08,31,13.40
2014,09,16,08,32,13.30
2014,09,16,08,33,13.30
2014,09,16,08,34,13.30
2014,09,16,08,35,13.30
2014,09,16,08,36,13.30
2014,09,16,08,37,13.40
2014,09,16,08,38,13.40
2014,09,16,08,39,13.50
2014,09,16,08,40,13.50
2014,09,16,08,41,13.60
2014,09,16,08,42,13.60
2014,09,16,08,43,13.60
2014,09,16,08,44,13.70
2014,09,16,08,45,13.70
2014,09,16,08,46,13.70
2014,09,16,08,47,13.60
2014,09,16,08,48,13.60
2014,09,16,08,49,13.60
2014,09,16,08,50,13.70
2014,09,16,08,51,13.70
2014,09,16,08,52,13.80
2014,09,16,08,53,13.80
2014,09,16,08,54,13.80
2014,09,16,08,55,13.90
2014,09,16,08,56,13.90
2014,09,16,08,57,14.00
2014,09,16,08,58,14.00
2014,09,16,08,59,14.10
2014,09,16,09,00,14.20
2014,09,16,09,01,14.20
2014,09,16,09,02,14.20
2014,09,16,09,03,14.20
2014,09,16,09,04,14.20
2014,09,16,09,05,14.20
2014,09,16,09,06,14.20
2014,09,16,09,07,14.20
2014,09,16,09,08,14.30
2014,09,16,09,09,14.30
2014,09,16,09,10,14.30
2014,09,16,09,11,14.20
2014,09,16,09,12,14.20
2014,09,16,09,13,14.20
2014,09,16,09,14,14.20
2014,09,16,09,15,14.10
2014,09,16,09,16,14.10
2014,09,16,09,17,14.10
2014,09,16,09,18,14.10
2014,09,16,09,19,14.20
2014,09,16,09,20,14.20
2014,09,16,09,21,14.20
2014,09,16,09,22,14.20
2014,09,16,09,23,14.20
2014,09,16,09,24,14.20
2014,09,16,09,25,14.20
2014,09,16,09,26,14.20
2014,09,16,09,27,14.20
2014,09,16,09,28,14.20
2014,09,16,09,29,14.20
2014,09,16,09,30,14.20
2014,09,16,09,31,14.20
2014,09,16,09,32,14.20
2014,09,16,09,33,14.20
2014,09,16,09,34,14.20
2014,09,16,09,35,14.20
2014,09,16,09,36,14.10
2014,09,16,09,37,14.10
2014,09,16,09,38,14.10
2014,09,16,09,39,14.10
2014,09,16,09,40,14.10
2014,09,16,09,41,14.20
2014,09,16,09,42,14.20
2014,09,16,09,43,14.20
2014,09,16,09,44,14.30
2014,09,16,09,45,14.30
2014,09,16,09,46,14.30
2014,09,16,09,47,14.40
2014,09,16,09,48,14.40
2014,09,16,09,49,14.50
2014,09,16,09,50,14.50
2014,09,16,09,51,14.60
2014,09,16,09,52,14.60
2014,09,16,09,53,14.70
2014,09,16,09,54,14.70
2014,09,16,09,55,14.70
2014,09,16,09,56,14.80
2014,09,16,09,57,14.80
2014,09,16,09,58,14.80
2014,09,16,09,59,14.90
2014,09,16,10,00,14.90
2014,09,16,10,01,15.00
2014,09,16,10,02,15.10
2014,09,16,10,03,15.10
2014,09,16,10,04,15.10
2014,09,16,10,05,15.20
2014,09,16,10,06,15.20
2014,09,16,10,07,15.30
2014,09,16,10,08,15.30
2014,09,16,10,09,15.40
2014,09,16,10,10,15.40
2014,09,16,10,11,15.50
2014,09,16,10,12,15.60
2014,09,16,10,13,15.70
2014,09,16,10,14,15.80
2014,09,16,10,15,15.80
2014,09,16,10,16,15.90
2014,09,16,10,17,16.00
2014,09,16,10,18,16.00
2014,09,16,10,19,16.00
2014,09,16,10,20,16.10
2014,09,16,10,21,16.10
2014,09,16,10,22,16.10
2014,09,16,10,23,16.10
2014,09,16,10,24,16.10
2014,09,16,10,25,16.20
2014,09,16,10,26,16.20
2014,09,16,10,27,16.20
2014,09,16,10,28,16.30
2014,09,16,10,29,16.30
2014,09,16,10,30,16.30
2014,09,16,10,31,16.30
2014,09,16,10,32,16.40
2014,09,16,10,33,16.40
2014,09,16,10,34,16.40
2014,09,16,10,35,16.50
2014,09,16,10,36,16.50
2014,09,16,10,37,16.60
2014,09,16,10,38,16.60
2014,09,16,10,39,16.70
2014,09,16,10,40,16.70
2014,09,16,10,41,16.80
2014,09,16,10,42,16.80
2014,09,16,10,43,16.80
2014,09,16,10,44,16.80
2014,09,16,10,45,16.80
2014,09,16,10,46,16.90
2014,09,16,10,47,16.90
2014,09,16,10,48,16.90
2014,09,16,10,49,17.00
2014,09,16,10,50,17.00
2014,09,16,10,51,17.00
2014,09,16,10,52,17.10
2014,09,16,10,53,17.10
2014,09,16,10,54,17.10
2014,09,16,10,55,17.10
2014,09,16,10,56,17.10
2014,09,16,10,57,17.20
2014,09,16,10,58,17.20
2014,09,16,10,59,17.20
2014,09,16,11,00,17.20
2014,09,16,11,01,17.20
2014,09,16,11,02,17.30
2014,09,16,11,03,17.20
2014,09,16,11,04,17.10
2014,09,16,11,05,17.00
2014,09,16,11,06,16.90
2014,09,16,11,07,16.80
2014,09,16,11,08,16.70
2014,09,16,11,09,16.70
2014,09,16,11,10,16.60
2014,09,16,11,11,16.50
2014,09,16,11,12,16.40
2014,09,16,11,13,16.30
2014,09,16,11,14,16.30
2014,09,16,11,15,16.20
2014,09,16,11,16,16.20
2014,09,16,11,17,16.10
2014,09,16,11,18,16.10
2014,09,16,11,19,16.10
2014,09,16,11,20,16.10
2014,09,16,11,21,16.10
2014,09,16,11,22,16.10
2014,09,16,11,23,16.20
2014,09,16,11,24,16.20
2014,09,16,11,25,16.30
2014,09,16,11,26,16.40
2014,09,16,11,27,16.50
2014,09,16,11,28,16.60
2014,09,16,11,29,16.70
2014,09,16,11,30,16.80
2014,09,16,11,31,16.90
2014,09,16,11,32,17.00
2014,09,16,11,33,17.00
2014,09,16,11,34,17.10
2014,09,16,11,35,17.10
2014,09,16,11,36,17.20
2014,09,16,11,37,17.40
2014,09,16,11,38,17.50
2014,09,16,11,39,17.60
2014,09,16,11,40,17.70
2014,09,16,11,41,17.80
2014,09,16,11,42,17.90
2014,09,16,11,43,18.00
2014,09,16,11,44,18.10
2014,09,16,11,45,18.10
2014,09,16,11,46,18.20
2014,09,16,11,47,18.20
2014,09,16,11,48,18.30
2014,09,16,11,49,18.40
2014,09,16,11,50,18.50
2014,09,16,11,51,18.50
2014,09,16,11,52,18.60
2014,09,16,11,53,18.60
2014,09,16,11,54,18.70
2014,09,16,11,55,18.70
2014,09,16,11,56,18.80
2014,09,16,11,57,18.80
2014,09,16,11,58,18.90
2014,09,16,11,59,19.00
2014,09,16,12,00,19.10
2014,09,16,12,01,19.20
2014,09,16,12,02,19.20
2014,09,16,12,03,19.20
2014,09,16,12,04,19.20
2014,09,16,12,05,19.10
2014,09,16,12,06,19.10
2014,09,16,12,07,18.90
2014,09,16,12,08,18.80
2014,09,16,12,09,18.80
2014,09,16,12,10,18.70
2014,09,16,12,11,18.60
2014,09,16,12,12,18.60
2014,09,16,12,13,18.50
2014,09,16,12,14,18.50
2014,09,16,12,15,18.50
2014,09,16,12,16,18.50
2014,09,16,12,17,18.50
2014,09,16,12,18,18.50
2014,09,16,12,19,18.50
2014,09,16,12,20,18.50
2014,09,16,12,21,18.50
2014,09,16,12,22,18.50
2014,09,16,12,23,18.50
2014,09,16,12,24,18.40
2014,09,16,12,25,18.40
2014,09,16,12,26,18.40
2014,09,16,12,27,18.40
2014,09,16,12,28,18.30
2014,09,16,12,29,18.30
2014,09,16,12,30,18.20
2014,09,16,12,31,18.20
2014,09,16,12,32,18.10
2014,09,16,12,33,18.10
2014,09,16,12,34,18.10
2014,09,16,12,35,18.10
2014,09,16,12,36,18.10
2014,09,16,12,37,18.10
2014,09,16,12,38,18.10
2014,09,16,12,39,18.10
2014,09,16,12,40,18.10
2014,09,16,12,41,18.10
2014,09,16,12,42,18.20
2014,09,16,12,43,18.20
2014,09,16,12,44,18.20
2014,09,16,12,45,18.30
2014,09,16,12,46,18.30
2014,09,16,12,47,18.40
2014,09,16,12,48,18.40
2014,09,16,12,49,18.50
2014,09,16,12,50,18.60
2014,09,16,12,51,18.70
2014,09,16,12,52,18.70
2014,09,16,12,53,18.80
2014,09,16,12,54,18.90
2014,09,16,12,55,19.00
2014,09,16,12,56,19.10
2014,09,16,12,57,19.10
2014,09,16,12,58,19.10
2014,09,16,12,59,19.10
2014,09,16,13,00,19.20
2014,09,16,13,01,19.30
2014,09,16,13,02,19.40
2014,09,16,13,03,19.40
2014,09,16,13,04,19.50
2014,09,16,13,05,19.50
2014,09,16,13,06,19.50
2014,09,16,13,07,19.50
2014,09,16,13,08,19.50
2014,09,16,13,09,19.50
2014,09,16,13,10,19.50
2014,09,16,13,11,19.50
2014,09,16,13,12,19.50
2014,09,16,13,13,19.50
2014,09,16,13,14,19.60
2014,09,16,13,15,19.60
2014,09,16,13,16,19.70
2014,09,16,13,17,19.70
2014,09,16,13,18,19.60
2014,09,16,13,19,19.40
2014,09,16,13,20,19.20
2014,09,16,13,21,19.00
2014,09,16,13,22,18.80
2014,09,16,13,23,18.60
2014,09,16,13,24,18.50
2014,09,16,13,25,18.40
2014,09,16,13,26,18.30
2014,09,16,13,27,18.30
2014,09,16,13,28,18.30
2014,09,16,13,29,18.30
2014,09,16,13,30,18.20
2014,09,16,13,31,18.20
2014,09,16,13,32,18.20
2014,09,16,13,33,18.20
2014,09,16,13,34,18.30
2014,09,16,13,35,18.30
2014,09,16,13,36,18.30
2014,09,16,13,37,18.40
2014,09,16,13,38,18.50
2014,09,16,13,39,18.50
2014,09,16,13,40,18.70
2014,09,16,13,41,18.80
2014,09,16,13,42,18.80
2014,09,16,13,43,18.90
2014,09,16,13,44,18.90
2014,09,16,13,45,19.00
2014,09,16,13,46,19.10
2014,09,16,13,47,19.00
2014,09,16,13,48,19.00
2014,09,16,13,49,19.00
2014,09,16,13,50,18.90
2014,09,16,13,51,18.90
2014,09,16,13,52,18.80
2014,09,16,13,53,18.80
2014,09,16,13,54,18.80
2014,09,16,13,55,18.70
2014,09,16,13,56,18.70
2014,09,16,13,57,18.60
2014,09,16,13,58,18.50
2014,09,16,13,59,18.40
2014,09,16,14,00,18.30
2014,09,16,14,01,18.20
2014,09,16,14,02,18.10
2014,09,16,14,03,18.10
2014,09,16,14,04,18.10
2014,09,16,14,05,18.10
2014,09,16,14,06,18.10
2014,09,16,14,07,18.10
2014,09,16,14,08,18.20
2014,09,16,14,09,18.20
2014,09,16,14,10,18.20
2014,09,16,14,11,18.20
2014,09,16,14,12,18.20
2014,09,16,14,13,18.20
2014,09,16,14,14,18.20
2014,09,16,14,15,18.30
2014,09,16,14,16,18.30
2014,09,16,14,17,18.40
2014,09,16,14,18,18.40
2014,09,16,14,19,18.40
2014,09,16,14,20,18.40
2014,09,16,14,21,18.50
2014,09,16,14,22,18.50
2014,09,16,14,23,18.50
2014,09,16,14,24,18.60
2014,09,16,14,25,18.60
2014,09,16,14,26,18.60
2014,09,16,14,27,18.70
2014,09,16,14,28,18.70
2014,09,16,14,29,18.70
2014,09,16,14,30,18.70
2014,09,16,14,31,18.80
2014,09,16,14,32,18.70
2014,09,16,14,33,18.70
2014,09,16,14,34,18.70
2014,09,16,14,35,18.70
2014,09,16,14,36,18.70
2014,09,16,14,37,18.70
2014,09,16,14,38,18.70
2014,09,16,14,39,18.70
2014,09,16,14,40,18.80
2014,09,16,14,41,18.80
2014,09,16,14,42,18.80
2014,09,16,14,43,18.90
2014,09,16,14,44,19.00
2014,09,16,14,45,19.10
2014,09,16,14,46,19.20
2014,09,16,14,47,19.30
2014,09,16,14,48,19.30
2014,09,16,14,49,19.30
2014,09,16,14,50,19.30
2014,09,16,14,51,19.30
2014,09,16,14,52,19.30
2014,09,16,14,53,19.30
2014,09,16,14,54,19.20
2014,09,16,14,55,19.20
2014,09,16,14,56,19.10
2014,09,16,14,57,19.10
2014,09,16,14,58,19.10
2014,09,16,14,59,19.00
2014,09,16,15,00,18.90
2014,09,16,15,01,18.80
2014,09,16,15,02,18.70
2014,09,16,15,03,18.60
2014,09,16,15,04,18.60
2014,09,16,15,05,18.50
2014,09,16,15,06,18.40
2014,09,16,15,07,18.30
2014,09,16,15,08,18.30
2014,09,16,15,09,18.40
2014,09,16,15,10,18.40
2014,09,16,15,11,18.40
2014,09,16,15,12,18.40
2014,09,16,15,13,18.50
2014,09,16,15,14,18.50
2014,09,16,15,15,18.60
2014,09,16,15,16,18.70
2014,09,16,15,17,18.70
2014,09,16,15,18,18.80
2014,09,16,15,19,18.90
2014,09,16,15,20,18.90
2014,09,16,15,21,19.00
2014,09,16,15,22,19.00
2014,09,16,15,23,19.00
2014,09,16,15,24,19.00
2014,09,16,15,25,18.90
2014,09,16,15,26,18.90
2014,09,16,15,27,18.90
2014,09,16,15,28,18.80
2014,09,16,15,29,18.80
2014,09,16,15,30,18.80
2014,09,16,15,31,18.90
2014,09,16,15,32,18.90
2014,09,16,15,33,19.00
2014,09,16,15,34,19.00
2014,09,16,15,35,19.10
2014,09,16,15,36,19.20
2014,09,16,15,37,19.30
2014,09,16,15,38,19.40
2014,09,16,15,39,19.50
2014,09,16,15,40,19.60
2014,09,16,15,41,19.60
2014,09,16,15,42,19.70
2014,09,16,15,43,19.80
2014,09,16,15,44,19.80
2014,09,16,15,45,19.90
2014,09,16,15,46,20.10
2014,09,16,15,47,20.10
2014,09,16,15,48,20.20
2014,09,16,15,49,20.30
2014,09,16,15,50,20.40
2014,09,16,15,51,20.40
2014,09,16,15,52,20.50
2014,09,16,15,53,20.60
2014,09,16,15,54,20.60
2014,09,16,15,55,20.70
2014,09,16,15,56,20.70
2014,09,16,15,57,20.80
2014,09,16,15,58,20.80
2014,09,16,15,59,20.80
2014,09,16,16,00,20.80
2014,09,16,16,01,20.90
2014,09,16,16,02,20.90
2014,09,16,16,03,20.80
2014,09,16,16,04,20.80
2014,09,16,16,05,20.80
2014,09,16,16,06,20.70
2014,09,16,16,07,20.70
2014,09,16,16,08,20.60
2014,09,16,16,09,20.60
2014,09,16,16,10,20.50
2014,09,16,16,11,20.40
2014,09,16,16,12,20.30
2014,09,16,16,13,20.30
2014,09,16,16,14,20.30
2014,09,16,16,15,20.30
2014,09,16,16,16,20.40
2014,09,16,16,17,20.40
2014,09,16,16,18,20.40
2014,09,16,16,19,20.40
2014,09,16,16,20,20.50
2014,09,16,16,21,20.50
2014,09,16,16,22,20.50
2014,09,16,16,23,20.50
2014,09,16,16,24,20.60
2014,09,16,16,25,20.60
2014,09,16,16,26,20.50
2014,09,16,16,27,20.60
2014,09,16,16,28,20.60
2014,09,16,16,29,20.60
2014,09,16,16,30,20.60
2014,09,16,16,31,20.60
2014,09,16,16,32,20.60
2014,09,16,16,33,20.60
2014,09,16,16,34,20.70
2014,09,16,16,35,20.70
2014,09,16,16,36,20.70
2014,09,16,16,37,20.70
2014,09,16,16,38,20.70
2014,09,16,16,39,20.60
2014,09,16,16,40,20.60
2014,09,16,16,41,20.60
2014,09,16,16,42,20.60
2014,09,16,16,43,20.60
2014,09,16,16,44,20.60
2014,09,16,16,45,20.60
2014,09,16,16,46,20.60
2014,09,16,16,47,20.60
2014,09,16,16,48,20.60
2014,09,16,16,49,20.60
2014,09,16,16,50,20.60
2014,09,16,16,51,20.60
2014,09,16,16,52,20.60
2014,09,16,16,53,20.60
2014,09,16,16,54,20.60
2014,09,16,16,55,20.60
2014,09,16,16,56,20.50
2014,09,16,16,57,20.50
2014,09,16,16,58,20.50
2014,09,16,16,59,20.50
2014,09,16,17,00,20.50
2014,09,16,17,01,20.50
2014,09,16,17,02,20.50
2014,09,16,17,03,20.40
2014,09,16,17,04,20.40
2014,09,16,17,05,20.40
2014,09,16,17,06,20.40
2014,09,16,17,07,20.40
2014,09,16,17,08,20.40
2014,09,16,17,09,20.40
2014,09,16,17,10,20.40
2014,09,16,17,11,20.40
2014,09,16,17,12,20.40
2014,09,16,17,13,20.30
2014,09,16,17,14,20.20
2014,09,16,17,15,20.20
2014,09,16,17,16,20.20
2014,09,16,17,17,20.20
2014,09,16,17,18,20.20
2014,09,16,17,19,20.20